FW1433 Weather Reports


Display with metric or nautical units.
time (UTC)temp
F
wind
direction
speed
MPH
gust
MPH
rain 1hr
in
rain 24hr
in
rain mn
in
humidity
%
barometer
mb
20260507144851 60 277 7.0 15.0 0.00 0.01 0.00 38 1011.3
20260507144120 59 299 8.0 16.0 0.00 0.01 0.00 39 1011.3
20260507143620 59 292 8.0 16.0 0.00 0.02 0.00 38 1011.3
20260507143117 58 302 7.0 16.0 0.00 0.02 0.00 41 1011.3
20260507142849 57 280 6.0 16.0 0.00 0.02 0.00 40 1011.3
20260507142117 57 298 5.0 15.0 0.00 0.02 0.00 41 1011.2
20260507141617 56 319 5.0 13.0 0.00 0.02 0.00 42 1011.2
20260507141118 56 314 6.0 14.0 0.00 0.02 0.00 41 1011.0
20260507140617 55 13 7.0 15.0 0.00 0.02 0.00 41 1010.9
20260507140118 55 313 6.0 15.0 0.00 0.02 0.00 41 1010.9
20260507135617 54 267 6.0 15.0 0.00 0.02 0.00 42 1010.8
20260507135117 54 291 7.0 20.0 0.00 0.02 0.00 43 1010.8
20260507134616 53 286 7.0 20.0 0.00 0.02 0.00 43 1010.8
20260507134115 53 284 5.0 13.0 0.00 0.02 0.00 45 1010.9
20260507133614 53 282 5.0 13.0 0.00 0.02 0.00 45 1010.8
20260507133116 52 280 4.0 13.0 0.00 0.02 0.00 45 1010.8
20260507132618 52 313 4.0 11.0 0.00 0.02 0.00 45 1010.8
20260507132115 52 293 3.0 11.0 0.00 0.02 0.00 45 1010.7
20260507131848 52 261 3.0 9.0 0.00 0.02 0.00 47 1010.8
20260507131116 52 301 4.0 12.0 0.00 0.02 0.00 46 1010.8
20260507130615 52 269 4.0 12.0 0.00 0.02 0.00 45 1010.7
20260507130115 52 302 6.0 16.0 0.00 0.02 0.00 44 1010.7
20260507125615 52 294 8.0 19.0 0.00 0.02 0.00 45 1010.7
20260507125348 51 317 8.0 19.0 0.00 0.02 0.00 45 1010.5
20260507124615 51 315 7.0 15.0 0.00 0.02 0.00 46 1010.4
20260507124115 51 321 6.0 15.0 0.00 0.02 0.00 46 1010.3
20260507123613 50 312 6.0 14.0 0.00 0.02 0.00 47 1010.3
20260507123344 49 320 4.0 12.0 0.00 0.02 0.00 48 1010.3
20260507122615 49 315 4.0 12.0 0.00 0.02 0.00 49 1010.3
20260507122113 49 313 4.0 12.0 0.00 0.02 0.00 49 1010.2
20260507121614 48 321 3.0 12.0 0.00 0.02 0.00 50 1010.2
20260507121114 48 298 2.0 12.0 0.00 0.02 0.00 50 1010.2
20260507120613 48 286 2.0 10.0 0.00 0.02 0.00 51 1010.4
20260507120113 48 261 2.0 8.0 0.00 0.02 0.00 49 1010.3
20260507115613 48 304 3.0 9.0 0.00 0.02 0.00 49 1010.2
20260507115113 49 313 4.0 10.0 0.00 0.02 0.00 48 1010.2
20260507114612 49 281 5.0 13.0 0.00 0.02 0.00 47 1010.2
20260507114112 49 256 5.0 13.0 0.00 0.02 0.00 47 1010.2
20260507113614 49 308 5.0 10.0 0.00 0.02 0.00 47 1010.2
20260507113112 49 311 5.0 10.0 0.00 0.02 0.00 47 1010.2
20260507112612 49 262 4.0 10.0 0.00 0.02 0.00 47 1010.1
20260507112113 49 270 5.0 12.0 0.00 0.02 0.00 47 1010.2
20260507111613 49 311 7.0 16.0 0.00 0.02 0.00 47 1010.2
20260507111344 49 252 6.0 16.0 0.00 0.02 0.00 47 1010.2
20260507110614 48 284 4.0 14.0 0.00 0.02 0.00 48 1010.3
20260507110111 49 288 4.0 11.0 0.00 0.02 0.00 47 1010.1
20260507105607 49 327 4.0 10.0 0.00 0.02 0.00 46 1010.1
20260507105107 50 309 5.0 16.0 0.00 0.02 0.00 46 1010.2
20260507104607 50 259 5.0 16.0 0.00 0.02 0.00 44 1010.1
20260507104337 51 317 6.0 17.0 0.00 0.02 0.00 44 1010.0
20260507103607 51 355 10.0 19.0 0.00 0.02 0.00 43 1010.1
20260507103104 51 283 12.0 23.0 0.00 0.02 0.00 43 1010.0
20260507102605 50 313 12.0 23.0 0.00 0.02 0.00 43 1010.0
20260507102105 50 304 11.0 22.0 0.00 0.02 0.00 44 1009.9
20260507101607 50 292 11.0 22.0 0.00 0.02 0.00 44 1009.9
20260507101104 50 311 10.0 20.0 0.00 0.02 0.00 44 1009.9
20260507100603 50 301 10.0 20.0 0.00 0.02 0.00 44 1009.9
20260507100106 50 291 11.0 18.0 0.00 0.02 0.00 44 1009.9
20260507100101 50 297 10.0 17.0 0.00 0.02 0.00 44 1009.7
20260507095101 49 318 11.0 20.0 0.00 0.02 0.00 45 1009.9
20260507094831 49 269 11.0 20.0 0.00 0.02 0.00 45 1010.0
20260507094101 49 281 10.0 17.0 0.00 0.02 0.00 46 1010.0
20260507093600 49 5 10.0 24.0 0.00 0.02 0.00 46 1010.1
20260507093102 49 257 9.0 24.0 0.00 0.02 0.00 47 1010.0
20260507092558 48 337 9.0 20.0 0.00 0.02 0.00 47 1010.1
20260507092329 48 250 9.0 20.0 0.00 0.02 0.00 48 1010.0
20260507091557 47 288 8.0 19.0 0.00 0.02 0.00 49 1010.1
20260507091057 46 355 6.0 13.0 0.00 0.02 0.00 50 1010.1
20260507090557 45 287 6.0 12.0 0.00 0.02 0.00 51 1010.3
20260507090331 45 302 4.0 11.0 0.00 0.02 0.00 52 1010.1
20260507085826 45 315 3.0 15.0 0.00 0.02 0.00 52 1010.2
20260507085056 45 244 4.0 15.0 0.00 0.02 0.00 52 1010.3
20260507084551 45 288 5.0 13.0 0.00 0.02 0.00 52 1010.2
20260507084050 44 267 5.0 13.0 0.00 0.02 0.00 53 1010.2
20260507083550 44 257 4.0 13.0 0.00 0.02 0.00 54 1010.2
20260507083051 43 285 4.0 12.0 0.00 0.02 0.00 54 1010.3
20260507082550 43 330 2.0 8.0 0.00 0.02 0.00 56 1010.3
20260507082051 43 318 2.0 8.0 0.00 0.02 0.00 56 1010.3
20260507081548 43 297 2.0 8.0 0.00 0.02 0.00 55 1010.4
20260507081048 44 267 3.0 11.0 0.00 0.02 0.00 54 1010.5
20260507080546 44 88 4.0 11.0 0.00 0.02 0.00 54 1010.5
20260507080045 44 275 3.0 10.0 0.00 0.02 0.00 55 1010.7
20260507075548 44 329 2.0 5.0 0.00 0.02 0.00 54 1010.8
20260507075046 44 297 2.0 5.0 0.00 0.02 0.00 54 1010.7
20260507074545 44 222 3.0 7.0 0.00 0.02 0.00 54 1010.9
20260507074045 44 314 3.0 7.0 0.00 0.02 0.00 54 1011.1
20260507073549 44 321 4.0 10.0 0.00 0.02 0.00 54 1011.1
20260507073544 44 230 2.0 6.0 0.00 0.02 0.00 55 1011.1
20260507072544 44 293 4.0 10.0 0.00 0.02 0.00 54 1011.1
20260507072043 44 287 4.0 12.0 0.00 0.02 0.00 54 1011.2
20260507071542 45 252 4.0 12.0 0.00 0.02 0.00 53 1011.3
20260507071040 45 316 3.0 9.0 0.00 0.02 0.00 52 1011.5
20260507070541 46 234 5.0 13.0 0.00 0.02 0.00 51 1011.6
20260507070038 45 300 6.0 13.0 0.00 0.02 0.00 51 1011.5
20260507065539 45 306 5.0 12.0 0.00 0.02 0.00 52 1011.6
20260507065309 44 309 5.0 12.0 0.00 0.02 0.00 53 1011.6
20260507064538 44 252 6.0 12.0 0.00 0.02 0.00 54 1011.7
20260507064039 44 271 7.0 15.0 0.00 0.02 0.00 55 1011.6
20260507063540 44 303 8.0 15.0 0.00 0.02 0.00 55 1011.8
20260507063050 43 298 5.0 13.0 0.00 0.02 0.00 56 1011.7
20260507063042 44 313 5.0 14.0 0.00 0.02 0.00 55 1011.7
20260507061534 43 307 7.0 17.0 0.00 0.02 0.00 57 1011.9
20260507061034 43 269 7.0 17.0 0.00 0.02 0.00 57 1011.9
20260507060534 43 315 6.0 18.0 0.00 0.02 0.00 58 1011.8
20260507060033 43 267 7.0 18.0 0.00 0.02 0.00 58 1011.8
20260507055533 43 302 8.0 14.0 0.00 0.02 0.02 58 1011.8
20260507055032 43 273 7.0 14.0 0.00 0.02 0.02 58 1011.9
20260507054530 43 227 7.0 19.0 0.00 0.02 0.02 58 1011.9
20260507054304 43 303 7.0 19.0 0.00 0.02 0.02 57 1011.9
20260507053530 43 284 6.0 18.0 0.00 0.02 0.02 58 1011.8
20260507053259 43 305 6.0 13.0 0.00 0.02 0.02 58 1011.9
20260507052801 43 225 7.0 17.0 0.00 0.02 0.02 59 1012.0
20260507052028 43 248 8.0 17.0 0.00 0.02 0.02 59 1012.1
20260507051529 42 248 8.0 16.0 0.00 0.02 0.02 60 1012.0
20260507051029 42 252 8.0 16.0 0.00 0.02 0.02 60 1012.0
20260507050531 42 294 8.0 15.0 0.00 0.02 0.02 60 1012.1
20260507050304 42 281 8.0 15.0 0.00 0.02 0.02 60 1012.1
20260507045529 42 292 7.0 15.0 0.00 0.02 0.02 60 1012.1
20260507045030 42 202 6.0 12.0 0.00 0.02 0.02 60 1012.1
20260507044530 42 334 5.0 9.0 0.00 0.02 0.02 60 1012.2
20260507044031 43 245 4.0 9.0 0.00 0.02 0.02 60 1012.2
20260507043530 43 313 4.0 9.0 0.00 0.02 0.02 59 1012.2
20260507043029 43 298 5.0 11.0 0.00 0.02 0.02 59 1012.2
20260507042527 43 256 5.0 12.0 0.00 0.02 0.02 59 1012.2
20260507042029 43 294 7.0 16.0 0.00 0.02 0.02 58 1012.2
20260507041528 43 248 8.0 16.0 0.00 0.02 0.02 59 1012.2
20260507041028 43 273 7.0 15.0 0.00 0.02 0.02 59 1012.2
20260507040528 43 298 6.0 15.0 0.00 0.02 0.02 58 1012.4
20260507040027 43 269 7.0 12.0 0.00 0.02 0.02 58 1012.2
20260507035528 43 306 6.0 12.0 0.00 0.02 0.02 59 1012.4
20260507035027 43 294 5.0 12.0 0.00 0.02 0.02 59 1012.4
20260507034528 43 296 3.0 8.0 0.00 0.03 0.02 60 1012.4
20260507034024 43 318 3.0 9.0 0.00 0.03 0.02 60 1012.5
20260507033524 43 34 3.0 9.0 0.00 0.03 0.02 60 1012.6
20260507033026 43 309 3.0 8.0 0.00 0.03 0.02 59 1012.5
20260507032800 43 53 3.0 9.0 0.00 0.03 0.02 58 1012.7
20260507032023 43 311 4.0 9.0 0.00 0.03 0.02 58 1012.8
20260507031523 43 289 3.0 9.0 0.00 0.03 0.02 58 1012.9
20260507031022 44 19 3.0 9.0 0.00 0.03 0.02 57 1012.9
20260507030754 44 348 2.0 9.0 0.00 0.03 0.02 57 1012.9
20260507030022 44 36 2.0 9.0 0.00 0.03 0.02 56 1013.0
20260507025754 44 0 3.0 9.0 0.00 0.03 0.02 56 1012.8
20260507025022 44 40 4.0 10.0 0.00 0.03 0.02 55 1012.8
20260507024523 44 115 3.0 10.0 0.00 0.03 0.02 55 1012.9
20260507024022 45 290 2.0 5.0 0.00 0.03 0.02 54 1012.9
20260507023522 45 160 2.0 7.0 0.00 0.03 0.02 54 1012.9
20260507023255 46 26 3.0 7.0 0.00 0.03 0.02 53 1012.9
20260507022753 46 290 3.0 9.0 0.00 0.03 0.02 52 1012.9
20260507022019 46 5 4.0 13.0 0.00 0.03 0.02 51 1013.0
20260507021519 47 306 6.0 13.0 0.00 0.03 0.02 50 1013.0
20260507021018 47 277 7.0 15.0 0.00 0.03 0.02 49 1013.0
20260507020520 47 263 6.0 15.0 0.00 0.03 0.02 49 1013.0
20260507020252 48 304 5.0 13.0 0.00 0.03 0.02 48 1012.9
20260507015752 48 266 6.0 12.0 0.00 0.03 0.02 47 1013.0
20260507015018 49 222 6.0 13.0 0.00 0.04 0.02 46 1013.0
20260507014519 49 264 5.0 13.0 0.00 0.04 0.02 45 1013.0
20260507014248 50 227 4.0 10.0 0.00 0.04 0.02 42 1013.0
20260507013747 50 331 3.0 10.0 0.00 0.04 0.02 40 1013.0
20260507013017 51 248 4.0 10.0 0.00 0.04 0.02 40 1013.0
20260507012516 51 287 4.0 10.0 0.00 0.04 0.02 39 1013.0
20260507012015 52 224 4.0 8.0 0.00 0.04 0.02 38 1013.0
20260507011743 52 267 4.0 9.0 0.00 0.04 0.02 37 1013.2
20260507011243 53 286 4.0 9.0 0.00 0.04 0.02 36 1013.3
20260507010512 53 317 6.0 12.0 0.00 0.04 0.02 35 1013.3
20260507010012 54 287 6.0 14.0 0.00 0.05 0.02 35 1013.2
20260507005511 54 289 5.0 14.0 0.00 0.05 0.02 33 1013.2
20260507005011 54 282 3.0 11.0 0.00 0.05 0.02 35 1013.2
20260507004741 54 263 5.0 13.0 0.00 0.05 0.02 34 1013.2
20260507004012 54 241 6.0 13.0 0.00 0.05 0.02 33 1013.3
20260507003512 53 288 5.0 12.0 0.00 0.05 0.02 33 1013.3
20260507003012 54 256 4.0 9.0 0.00 0.05 0.02 35 1013.3
20260507002511 54 264 4.0 9.0 0.00 0.05 0.02 36 1013.4
20260507002240 54 251 5.0 13.0 0.00 0.06 0.02 36 1013.4
20260507001510 54 307 5.0 13.0 0.00 0.06 0.02 35 1013.4
20260507001009 54 253 5.0 14.0 0.00 0.06 0.02 34 1013.5
20260507000508 54 223 6.0 14.0 0.00 0.06 0.02 35 1013.4
20260507000008 54 242 6.0 18.0 0.00 0.07 0.02 34 1013.5
20260506235739 54 246 6.0 18.0 0.00 0.07 0.02 33 1013.5
20260506235010 54 296 6.0 13.0 0.00 0.07 0.02 34 1013.5
20260506234739 54 202 7.0 15.0 0.00 0.08 0.02 33 1013.6
20260506234239 54 302 6.0 15.0 0.00 0.08 0.02 33 1013.7
20260506233509 54 257 7.0 17.0 0.00 0.08 0.02 32 1013.7
20260506233008 54 248 8.0 17.0 0.00 0.08 0.02 33 1013.7
20260506232739 54 223 7.0 14.0 0.00 0.08 0.02 31 1013.8
20260506232007 53 310 7.0 16.0 0.00 0.08 0.02 32 1014.0
20260506231507 53 262 10.0 23.0 0.00 0.08 0.02 34 1013.8
20260506231006 53 232 10.0 23.0 0.00 0.08 0.02 32 1014.1
20260506230736 53 296 7.0 17.0 0.00 0.09 0.02 33 1014.0
20260506230004 53 300 6.0 14.0 0.00 0.09 0.02 32 1014.0
20260506225506 53 0 6.0 14.0 0.00 0.09 0.02 33 1014.0
20260506225004 53 311 6.0 15.0 0.00 0.09 0.02 33 1014.1
20260506224503 53 288 7.0 18.0 0.00 0.09 0.02 32 1014.2
20260506224002 53 223 5.0 18.0 0.00 0.09 0.02 31 1014.4
20260506223504 53 243 5.0 13.0 0.00 0.09 0.02 34 1014.2
20260506223234 53 336 6.0 13.0 0.00 0.09 0.02 35 1014.4
20260506222503 53 254 6.0 13.0 0.00 0.09 0.02 34 1014.5
20260506222003 52 288 8.0 15.0 0.00 0.09 0.02 37 1014.5
20260506221504 52 252 7.0 16.0 0.00 0.09 0.02 34 1014.5
20260506221234 52 257 6.0 16.0 0.00 0.09 0.02 36 1014.5
20260506220733 51 298 5.0 15.0 0.00 0.09 0.02 37 1014.5
20260506220003 51 304 7.0 17.0 0.00 0.09 0.02 35 1014.6
20260506215500 51 261 7.0 17.0 0.00 0.09 0.02 37 1014.8
20260506215001 51 262 6.0 15.0 0.00 0.09 0.02 36 1014.9
20260506214501 51 284 7.0 15.0 0.00 0.09 0.02 36 1015.0
20260506214000 51 254 6.0 15.0 0.00 0.09 0.02 36 1015.0
20260506213731 51 284 7.0 12.0 0.00 0.09 0.02 35 1015.1
20260506213231 51 306 8.0 13.0 0.00 0.09 0.02 34 1015.2
20260506212500 52 290 7.0 15.0 0.00 0.09 0.02 35 1015.3
20260506212000 52 285 6.0 15.0 0.00 0.09 0.02 36 1015.4
20260506211731 52 232 7.0 22.0 0.00 0.09 0.02 37 1015.6
20260506211000 51 317 7.0 22.0 0.00 0.09 0.02 36 1015.6
20260506210500 51 221 7.0 15.0 0.00 0.09 0.02 37 1015.6
20260506210000 51 298 6.0 14.0 0.00 0.09 0.02 36 1015.7
20260506205459 51 264 6.0 12.0 0.00 0.09 0.02 36 1015.8
20260506205000 51 286 6.0 12.0 0.00 0.09 0.02 36 1015.9
20260506204500 51 241 4.0 11.0 0.00 0.09 0.02 37 1015.9
20260506204002 50 280 6.0 19.0 0.00 0.09 0.02 38 1015.9
20260506203731 50 312 6.0 19.0 0.00 0.09 0.02 35 1016.0
20260506202959 49 294 5.0 14.0 0.00 0.09 0.02 41 1016.1
20260506202459 49 294 5.0 14.0 0.00 0.09 0.02 39 1016.2
20260506201959 49 298 6.0 14.0 0.00 0.09 0.02 38 1016.2
20260506201458 49 265 6.0 14.0 0.00 0.09 0.02 39 1016.5
20260506200955 49 270 5.0 13.0 0.00 0.09 0.02 42 1016.3
20260506200459 48 308 5.0 13.0 0.00 0.10 0.02 40 1016.6
20260506200000 48 231 5.0 13.0 0.00 0.10 0.02 40 1016.7
20260506195955 48 309 6.0 13.0 0.00 0.10 0.02 41 1016.6
20260506195228 47 331 5.0 11.0 0.00 0.10 0.02 44 1016.7
20260506194456 47 232 5.0 11.0 0.00 0.10 0.02 41 1016.7
20260506193955 47 293 4.0 14.0 0.00 0.10 0.02 45 1016.8
20260506193457 47 350 5.0 14.0 0.00 0.10 0.02 42 1016.9
20260506192956 47 213 5.0 13.0 0.00 0.11 0.02 43 1016.8
20260506192456 47 295 6.0 16.0 0.00 0.11 0.02 42 1016.9
20260506191956 47 256 5.0 16.0 0.00 0.11 0.02 47 1016.9
20260506191456 47 265 5.0 13.0 0.00 0.11 0.02 42 1017.0
20260506190957 47 294 5.0 13.0 0.00 0.11 0.02 42 1017.1
20260506190726 47 290 5.0 12.0 0.00 0.11 0.02 41 1017.1
20260506185953 48 263 5.0 12.0 0.00 0.11 0.02 41 1017.1
20260506185456 48 271 5.0 13.0 0.00 0.11 0.02 41 1017.1
20260506184956 47 296 7.0 16.0 0.00 0.11 0.02 43 1017.3
20260506184455 46 252 8.0 16.0 0.00 0.11 0.02 43 1017.5
20260506183954 46 119 9.0 17.0 0.00 0.11 0.02 43 1017.4
20260506183722 45 333 8.0 17.0 0.00 0.11 0.02 45 1017.4
20260506182949 45 279 8.0 17.0 0.00 0.11 0.02 43 1017.5
20260506182450 45 277 8.0 17.0 0.00 0.11 0.02 44 1017.6
20260506181950 45 268 6.0 16.0 0.00 0.11 0.02 45 1017.6
20260506181451 45 294 7.0 16.0 0.00 0.11 0.02 43 1017.8
20260506180951 46 54 7.0 16.0 0.00 0.11 0.02 45 1017.8
20260506180718 45 259 8.0 16.0 0.00 0.11 0.02 45 1017.8
20260506175948 45 313 6.0 16.0 0.00 0.11 0.02 45 1017.9
20260506175448 46 298 3.0 15.0 0.00 0.11 0.02 50 1017.8
20260506174947 45 216 4.0 13.0 0.00 0.11 0.02 50 1017.8
20260506174447 44 270 7.0 14.0 0.00 0.11 0.02 49 1017.9
20260506173948 45 292 6.0 14.0 0.00 0.11 0.02 48 1017.9
20260506173447 45 209 4.0 14.0 0.00 0.11 0.02 49 1017.8
20260506173217 44 286 4.0 17.0 0.00 0.11 0.02 49 1017.9
20260506172443 44 286 5.0 17.0 0.00 0.11 0.02 47 1017.9
20260506171943 44 304 5.0 13.0 0.00 0.11 0.02 50 1017.9
20260506171445 44 271 6.0 15.0 0.00 0.11 0.02 50 1018.1
20260506170942 43 282 7.0 16.0 0.00 0.11 0.02 49 1018.1
20260506170441 43 304 6.0 16.0 0.00 0.11 0.02 49 1018.1
20260506165941 43 271 5.0 11.0 0.00 0.11 0.02 51 1018.1
20260506165441 43 260 6.0 13.0 0.00 0.11 0.02 55 1018.2
20260506165208 43 0 6.0 16.0 0.00 0.11 0.02 53 1018.2
20260506164438 42 294 5.0 16.0 0.00 0.11 0.02 55 1018.2
20260506163937 42 300 4.0 9.0 0.00 0.11 0.02 55 1018.2
20260506163437 42 247 5.0 11.0 0.01 0.11 0.02 53 1018.3
20260506162938 42 296 4.0 11.0 0.01 0.11 0.02 54 1018.2
20260506162436 42 306 3.0 9.0 0.01 0.11 0.02 54 1018.2
20260506162208 42 240 3.0 9.0 0.01 0.11 0.02 55 1018.3
20260506161434 41 130 4.0 9.0 0.01 0.11 0.02 56 1018.2
20260506160935 40 321 5.0 11.0 0.01 0.11 0.02 60 1018.2
20260506160433 40 284 6.0 11.0 0.01 0.11 0.02 55 1018.2
20260506155933 40 293 4.0 11.0 0.01 0.11 0.02 58 1018.2
20260506155433 40 290 6.0 14.0 0.01 0.11 0.02 58 1018.2
20260506154933 40 257 6.0 14.0 0.01 0.11 0.02 58 1018.2
20260506154432 40 284 3.0 13.0 0.01 0.11 0.02 61 1018.2
20260506153934 40 299 4.0 10.0 0.01 0.11 0.02 60 1018.3
20260506153434 40 51 4.0 10.0 0.01 0.10 0.01 64 1018.2
20260506152934 40 331 4.0 10.0 0.01 0.10 0.01 62 1018.2
20260506152434 40 350 3.0 10.0 0.01 0.10 0.01 62 1018.2
20260506151932 40 257 4.0 8.0 0.01 0.10 0.01 65 1018.2
20260506151434 40 269 5.0 10.0 0.01 0.10 0.01 65 1018.2
20260506150931 40 251 4.0 10.0 0.01 0.10 0.01 63 1018.2
20260506150432 39 295 3.0 8.0 0.01 0.10 0.01 66 1018.2
20260506145935 39 259 4.0 8.0 0.01 0.10 0.01 66 1018.3
20260506145930 39 304 4.0 8.0 0.01 0.10 0.01 66 1018.3